Regional Weather Roundup
Issued by NWS

Home | Current Version | Previous Version | Graphics & Text | Print | Product List | Glossary On
Versions: 1 2 3 4 5 6 7 8 9 10 11 12 13 14 15 16 17 18 19 20 21 22 23 24 25 26 27 28 29 30 31 32 33 34 35 36 37 38 39 40 41 42 43 44 45 46 47 48 49 50
000
ASUS45 KTFX 281704
RWRMT
MONTANA HOURLY WEATHER ROUNDUP
NATIONAL WEATHER SERVICE GREAT FALLS MT
1004 AM MST FRI NOV 28 2014

NOTE: "FAIR" INDICATES FEW OR NO CLOUDS BELOW 12000 FEET WITH NO
SIGNIFICANT WEATHER AND/OR OBSTRUCTIONS TO VISIBILITY.

* THESE STATIONS ARE NOT UNDER NWS QUALITY CONTROL. THEY DO NOT
   REPORT WEATHER SUCH AS PRECIPITATION OR FOG.

MTZ001>007-043-281800-
WEST OF THE DIVIDE
CITY           SKY/WX    TMP DP  RH WIND       PRES   REMARKS
KALISPELL      CLOUDY    45  39  80 S12       29.48F
MISSOULA       CLOUDY    45  39  80 SE10      29.65S
BUTTE          CLOUDY    43  28  56 S13       29.71F
MULLAN PASS    LGT RAIN  36  36 100 SW16G29   29.56F VSB 1/2  WCI  26
* ESSEX        N/A       40  37  89 E3         N/A
* LINCOLN      N/A       37  36  96 W1         N/A
* LOOKOUT PASS N/A       41  38  89 SE12G28    N/A
* POLSON       N/A       44  39  83 S3G9       N/A
* RONAN APT    PTCLDY    48  37  66 SE14G20    N/A
* SEELEY LAKE  N/A       42  36  79 S5G15      N/A
* THOMP F APT  PTSUNNY   36  24  62 E3         N/A
* YAAK HILL    N/A       47  41  80 N/A        N/A
$$

MTZ008-052>055-281800-
SOUTHWEST MONTANA
CITY           SKY/WX    TMP DP  RH WIND       PRES   REMARKS
BOZEMAN        CLOUDY    52  25  35 SW16G24   29.69R
DILLON         PTSUNNY   50  25  38 SW8       29.73F
* W YELLOWSTON CLOUDY    38  23  55 SW6G18     N/A   WCI  33
* ENNIS APT    CLOUDY    48  23  37 S10G21     N/A
* THREE FORKS  CLOUDY    54  54 100 S8         N/A
* BOULDER HILL N/A       43  24  47 S24G34     N/A
* MONIDA PASS  N/A       32  25  75 SE18       N/A   WCI  21
* RAYNOLDS PAS N/A       39  20  46 SW12G17    N/A   WCI  32
* WHITEHALL    N/A       51  28  41 SW15G27    N/A
* WISE RIVER   N/A       39  33  79 NW12G18    N/A   WCI  32
$$

MTZ009>010-012-014-046-048-049-054-281800-
EAST SLOPES AND CENTRAL MONTANA
CITY           SKY/WX    TMP DP  RH WIND       PRES   REMARKS
CUT BANK       PTCLDY    48  36  63 W20G29    29.42R
GREAT FALLS    SUNNY     52  34  50 SW30G39   29.47F
HELENA         PTSUNNY   43  34  71 NE3       29.61F
MALMSTROM AFB  SUNNY     52  34  50 SW39G49   29.49F
* DEARBORN     N/A       52  34  50 S11G18     N/A
* EAST GLACIER N/A       38  36  93 W19        N/A   WCI  28
* MONARCH      N/A       45  23  42 SW29G38    N/A
* PENDROY      N/A       46  36  68 SW20G28    N/A
* ROGERS PASS  N/A       39  34  82 SE12G17    N/A   WCI  32
* SAINT MARY   N/A       40  37  89 S5G16      N/A   WCI  36
* SWEET GRASS  N/A       10   9  96 N11        N/A   WCI  -4
$$

MTZ011-013-016-021-035-040-045-047-050-051-281800-
NORTH CENTRAL MONTANA
CITY           SKY/WX    TMP DP  RH WIND       PRES   REMARKS
HAVRE          PTCLDY    32  28  85 NW15      29.45R WCI  22
LEWISTOWN      PTCLDY    54  30  40 SW28G35   29.53F
* N BAR RANCH  PTCLDY    54  28  37 SW17G26   29.55F
* CHESTER      N/A       36  33  89 NE1        N/A
* DENTON       N/A       50  31  48 SW15G21    N/A
* GEYSER       N/A       52  27  38 SW24G37    N/A
* JUDITH GAP   N/A       49  28  44 SW34G45    N/A
* LOMA         N/A       54  35  49 SW14G28    N/A
$$

MTZ017>020-022>027-061-062-281800-
NORTHEAST MONTANA
CITY           SKY/WX    TMP DP  RH WIND       PRES   REMARKS
GLASGOW        FOG       19  18  96 E15       29.51F VSB 2 1/2 WCI   5
GLENDIVE       CLOUDY    28  27  96 CALM      29.57F
JORDAN         PTSUNNY   36  34  92 CALM      29.51F
SIDNEY         PTSUNNY   25  18  75 CALM      29.61F
WOLF POINT     FOG       19  18  96 E9        29.57F VSB 3    WCI   8
* BEAVER HILL  N/A       43  32  65 S14        N/A
* CIRCLE       N/A       27  25  92 N/A        N/A
* LINDSAY DVD  N/A       37  33  85 E5         N/A   WCI  33
* NAVAJO       N/A       14  11  88 SE6        N/A   WCI   5
* SACO         N/A       21  20  96 E12        N/A   WCI   9
$$

MTZ028>042-056>058-281800-
SOUTHCENTRAL AND SOUTHEAST MONTANA
CITY           SKY/WX    TMP DP  RH WIND       PRES   REMARKS
BAKER          CLOUDY    46  32  58 SW5       29.60F
BILLINGS       CLOUDY    48  28  46 SW9       29.63S
LIVINGSTON     CLOUDY    54  21  27 SW33G44   29.63F
MILES CITY     CLOUDY    39  32  76 S12       29.57F WCI  32
* LAUREL APT   CLOUDY    48  25  41 N/A        N/A
* ALZADA       N/A       52  31  45 S3         N/A
* HYSHAM       N/A       53  22  30 W8G14      N/A
* LAME DEER    N/A       50  26  39 SW9        N/A
* REED POINT   N/A       53  29  40 SW2        N/A
* ROSCOE HILL  N/A       51  13  22 SW20G49    N/A
$$

REGIONAL REPORTS...DAKOTAS
CITY           SKY/WX    TMP DP  RH WIND       PRES   REMARKS
WILLISTON      CLOUDY    18  12  77 SE10      29.64F WCI   6
DICKINSON      CLOUDY    23  19  85 E7        29.60F WCI  15
BEACH          CLOUDY    43  32  65 SW8       29.58F
CROSBY         CLOUDY    12   9  88 SE14      29.67F WCI  -4
BISMARCK       PTSUNNY   14   9  80 E12       29.75F
GRAND FORKS    LGT SNOW  14   9  80 SE5       29.94S VSB 3    WCI   6
FARGO          CLOUDY    16   9  74 SE7       29.91F WCI   6
BUFFALO SD     CLOUDY    45  30  56 SE5       29.57S
RAPID CITY     CLOUDY    54  32  43 CALM      29.68F
$$

REGIONAL REPORTS...WYOMING/IDAHO/WASHINGTON
CITY           SKY/WX    TMP DP  RH WIND       PRES   REMARKS
GILLETTE       PTSUNNY   52  27  38 SW18G26   29.69F
SHERIDAN       CLOUDY    61  21  21 SW14G22   29.66S
CODY           PTCLDY    57  18  22 W33G55    29.68F
YELLOWSTONE LA CLOUDY    37  18  46 W8G25     29.90S WCI  31
SALMON         CLOUDY    43  34  71 CALM      29.77S
MULLAN PASS    LGT RAIN  36  36 100 SW16G29   29.56S VSB 1/2  WCI  26
SPOKANE        PTSUNNY   48  43  83 S21G32    29.49F
$$

REGIONAL REPORTS...SASKATCHEWAN
CITY           SKY/WX    TMP DP  RH WIND       PRES   REMARKS
SWIFT CURRENT  FOG       14  12  92 SE12      29.45F VSB 3/4

$$




USA.gov is the U.S. government's official web portal to all federal, state and local government web resources and services.